Regional Weather Roundup
Issued by NWS Midland/Odessa, TX

Skip options and go directly to product.
Home | Oldest Version | Next Version | Current Version | All | Text Only | Save Text | Print | Product List | Glossary On

Skip product version selection by date and time.   
439
ASUS44 KMAF 270901
RWRMAF
MIDLAND AREA WEATHER ROUNDUP
NATIONAL WEATHER SERVICE MIDLAND TX
400 AM CDT THU AUG 27 2015

...IN SOUTHWEST TEXAS AND SOUTHEAST NEW MEXICO...

CITY           SKY/WX    TMP DP  RH WIND       PRES   REMARKS
ALPINE         CLEAR     67  55  65 SW6       30.30F
ANDREWS        FAIR      69  61  75 SE6       30.19S
ARTESIA        CLEAR     72  55  56 SW5       30.20S
BIG SPRING     PTCLDY    70  61  72 CALM      30.17S
CARLSBAD       CLEAR     72  57  59 S7        30.16S
DRYDEN           N/A     77  61  57 NW6       30.10F
FORT STOCKTON  CLEAR     72  60  66 S7        30.15F
GUAD PASS      CLEAR     72  53  51 VRB6      30.33R
HOBBS            N/A     66  55  68 CALM      30.21F
MARFA          CLEAR     61  54  77 NW6       30.29S
MIDLAND AIRPK  CLEAR     75  63  64 CALM      30.17S
MIDLAND INTL   CLEAR     73  62  68 CALM      30.16S
ODESSA         CLEAR     73  61  65 S5        30.17F
PECOS          CLEAR     72  59  63 E5        30.13S
PRESIDIO       NOT AVBL
SEMINOLE       CLEAR     68  59  73 CALM      30.20S
SNYDER         CLEAR     72  63  73 S6        30.14F
WINK           CLEAR     73  60  63 E5        30.14S
$$
...OTHER STATIONS IN TEXAS...

CITY           SKY/WX    TMP DP  RH WIND       PRES   REMARKS
ABILENE        PTCLDY    74  67  78 SE8       30.10F
AMARILLO       CLOUDY    70  56  61 S12       30.18S
AUSTIN         PTCLDY    73  70  90 SW5       30.05F
BROWNSVILLE    CLEAR     75  74  96 NW3       30.00F
CORPUS CHRISTI MOCLDY    75  70  84 CALM      30.02F
DALLAS FTW     MOCLDY    76  59  55 SW5       30.04F
DEL RIO        CLEAR     80  65  59 E6        30.05R
EL PASO        MOCLDY    80  57  45 N7        30.18S
HOUSTON INT    PTCLDY    72  65  78 CALM      30.03S
LUBBOCK        MOCLDY    74  59  59 S9        30.17F
SAN ANGELO     CLEAR     72  66  81 SW6       30.11S
SAN ANTONIO    PTCLDY    79  72  79 S5        30.07F
WACO           PTCLDY    69  60  73 E3        30.06S
WICHITA FALLS  NOT AVBL
$$
...OTHER LOCATIONS IN NEW MEXICO...

CITY           SKY/WX    TMP DP  RH WIND       PRES   REMARKS
ALAMAGORDO     MOCLDY    72  54  53 S5        30.22S
ALBUQUERQUE    CLOUDY    67  60  78 E3        30.34F
CANNON AFB     PTCLDY    69  55  61 NW5       30.23F
CLOVIS         PTCLDY    64  54  68 SW6       30.24F
HOLLOMAN AFB   CLOUDY    73  55  52 NW6       30.20R
ROSWELL        CLEAR     73  54  51 SE6       30.19F
RUIDOSO        CLOUDY    61  52  72 MISG      30.43F
SANTA FE       CLOUDY    61  57  87 N7        30.39F
TRUTH OR CONSE MOCLDY    71  57  61 NW7       30.27S
TUCUMCARI      MOCLDY    69  54  58 SW6       30.20F
$$

USA.gov is the U.S. government's official web portal to all federal, state and local government web resources and services.